Weather History for Atlantic City, NJ

Change the Weather History Date:

Monday, November 5, 2012

  Actual Average Record
Temperature  
Mean Temperature 38 °F 50 °F  
Max Temperature 47 °F 60 °F 76 °F (2003)
Min Temperature 29 °F 40 °F 21 °F (1879)
Degree Days  
Heating Degree Days 27 15  
Month to date heating degree days 108 72  
Since 1 July heating degree days 394 430  
Cooling Degree Days 0 0  
Month to date cooling degree days 0 0  
Year to date cooling degree days 1218 1054  
Moisture  
Dew Point 26 °F    
Average Humidity 59    
Maximum Humidity 75    
Minimum Humidity 42    
Precipitation  
Precipitation 0.00 in 0.11 in 1.95 in (1939)
Month to date precipitation T 0.56  
Year to date precipitation 40.11 35.35  
Snow  
Snow 0.00 in 0.00 in 0.10 in (1973)
Month to date snowfall 0.0 0.0  
Since 1 July snowfall 0.0 0.0  
Since 1 September snowfall 0.0 0.0  
Snow Depth 0.00 in    
Sea Level Pressure  
Sea Level Pressure 30.07 in    
Wind  
Wind Speed 10 mph (NNW)    
Max Wind Speed 18 mph    
Max Gust Speed 28 mph    
Visibility 10 miles    
Events      
T = Trace of Precipitation, MM = Missing Value Source: NWS Daily Summary

Daily Weather History Graph

Daily Weather History Graph

Search for Another Location

Airport:

Trip Planner

Search our weather history database for the weather conditions in past years. The results will help you decide how hot, cold, wet, or windy it might be!

Date:

Astronomy

Nov. 05, 2012 Rise Set
Actual Time 6:31 AM EST 4:51 PM EST
Civil Twilight 6:03 AM EST 5:19 PM EST
Nautical Twilight 5:31 AM EST 5:51 PM EST
Astronomical Twilight 4:59 AM EST 6:23 PM EST
Moon 10:26 PM EST (11/5) 11:49 AM EST (11/5)
Length of Visible Light 11h 16m
Length of Day
10h 20m
Waning Gibbous, 63% of the Moon is Illuminated
Nov 5
Waning Gibbous
Nov 6
Last Quarter
Nov 13
New
Nov 20
First Quarter
Nov 28
Full

Hourly Weather History & Observations

Time (EST) Temp. Windchill Dew Point Humidity Pressure Visibility Wind Dir Wind Speed Gust Speed Precip Events Conditions
12:54 AM 41.0 °F 37.1 °F 28.9 °F 62% 30.01 in 10.0 mi WNW 5.8 mph - N/A   Overcast
1:54 AM 41.0 °F 35.8 °F 28.9 °F 62% 30.01 in 10.0 mi NW 8.1 mph - N/A   Overcast
2:54 AM 41.0 °F 35.8 °F 28.0 °F 60% 30.00 in 10.0 mi NW 8.1 mph - N/A   Overcast
3:54 AM 39.9 °F 33.9 °F 28.9 °F 65% 30.00 in 10.0 mi NNW 9.2 mph - N/A   Overcast
4:54 AM 39.9 °F 33.9 °F 27.0 °F 60% 30.01 in 10.0 mi NNW 9.2 mph - N/A   Overcast
5:54 AM 39.0 °F 31.8 °F 27.0 °F 62% 30.02 in 10.0 mi NNW 11.5 mph - N/A   Overcast
6:54 AM 39.0 °F 32.3 °F 26.1 °F 60% 30.04 in 10.0 mi NNW 10.4 mph - N/A   Overcast
7:54 AM 39.0 °F 31.8 °F 26.1 °F 60% 30.06 in 10.0 mi NNW 11.5 mph - N/A   Overcast
8:54 AM 39.9 °F 32.1 °F 25.0 °F 55% 30.06 in 10.0 mi NNW 13.8 mph - N/A   Overcast
9:54 AM 42.1 °F 35.7 °F 26.1 °F 53% 30.06 in 10.0 mi NNW 11.5 mph - N/A   Overcast
10:54 AM 44.1 °F 37.1 °F 27.0 °F 51% 30.06 in 10.0 mi NNW 15.0 mph - N/A   Overcast
11:54 AM 46.0 °F 39.9 °F 27.0 °F 47% 30.05 in 10.0 mi NW 13.8 mph - N/A   Mostly Cloudy
12:54 PM 45.0 °F 39.3 °F 27.0 °F 49% 30.04 in 10.0 mi NW 11.5 mph - N/A   Clear
1:54 PM 46.0 °F 39.3 °F 25.0 °F 44% 30.03 in 10.0 mi WNW 16.1 mph 19.6 mph N/A   Clear
2:54 PM 45.0 °F 38.2 °F 26.1 °F 48% 30.04 in 10.0 mi North 15.0 mph - N/A   Clear
3:54 PM 43.0 °F 37.2 °F 26.1 °F 51% 30.06 in 10.0 mi North 10.4 mph - N/A   Clear
4:54 PM 39.9 °F 37.8 °F 25.0 °F 55% 30.08 in 10.0 mi North 3.5 mph - N/A   Clear
5:54 PM 35.1 °F 28.6 °F 25.0 °F 67% 30.10 in 10.0 mi NW 8.1 mph - N/A   Clear
6:54 PM 35.1 °F 29.3 °F 25.0 °F 67% 30.12 in 10.0 mi NW 6.9 mph - N/A   Clear
7:54 PM 34.0 °F 28.0 °F 25.0 °F 70% 30.14 in 10.0 mi NNW 6.9 mph - N/A   Clear
8:54 PM 33.1 °F 26.9 °F 24.1 °F 70% 30.16 in 10.0 mi North 6.9 mph - N/A   Clear
9:54 PM 30.9 °F 25.2 °F 23.0 °F 72% 30.17 in 10.0 mi North 5.8 mph - N/A   Clear
10:54 PM 28.9 °F 23.9 °F 21.9 °F 75% 30.18 in 10.0 mi North 4.6 mph - N/A   Clear
11:54 PM 28.9 °F 22.8 °F 21.0 °F 72% 30.19 in 10.0 mi North 5.8 mph - N/A   Clear